User: anonymous   Login
Location: Unspecified
(0.0000°N, 0.0000°E)
Time: 11:21:10
(UTC+00:00)
Language:

USA 271 - Orbit

View from above orbital plane
View from above orbital plane
View from above satellite
View from above satellite

Ground track
Ground track

The orbit data is extracted from the following two-line orbital elements,

1 41745U 16052B   18112.05534474 0.00000000  00000-0  00000-0 0    03
2 41745   0.0085 276.7482 0001488  15.8698 344.1487  1.00485561    01
Epoch (UTC): 22 April 2018 01:19:41
Eccentricity: 0.0001488
inclination: 0.0085°
perigee height: 35720 km
apogee height: 35732 km
right ascension of ascending node: 276.7482°
argument of perigee: 15.8698°
revolutions per day: 1.00485561
mean anomaly at epoch: 344.1487°
orbit number at epoch: 0

The dashed part of the orbit path shows where the satellite is in the earth's shadow,  

DLR